Dewpoint
-3 -2 -1 -3 1 1 -0 -0 2 2 2 2 2 4 3 3 3 3 3 -1 -0 1 3 3 2 1 0 -1 -1 1 -1 2 4 2 0 -0 0 1 2 2 1 2 2 2
-3 -2 -4 -2 1 -0 -0 1 2 1 2 4 4 3 4 4 5 3 2 2 -1 -1 0 3 1 1 -1 -1 -1 1 -1 2 2 4 2 1 2 1 1 2 2 3 4 1
-3 -1 -7 -4 1 -0 -0 1 0 0 2 2 3 4 5 4 3 3 1 0 -2 -1 1 0 1 2 -0 -1 1 -1 -1 3 1 3 2 3 3 3 2 2 5 4 3 2
-8 -16 -14 -12 1 0 1 2 1 2 1 2 2 4 4 4 4 2 0 1 0 1 2 1 2 2 1 -0 1 0 2 3 3 3 3 3 3 3 3 4 4 6 3 4
-9 -34 -23 -18 -1 1 2 2 2 2 2 2 3 4 4 4 3 4 1 1 2 2 3 2 2 2 2 2 1 1 1 3 4 3 3 3 4 3 2 3 3 3 4 5
-10 -25 -34 -21 -14 0 1 2 2 2 1 2 3 2 3 3 2 2 3 2 4 5 4 3 3 1 1 1 2 2 4 4 2 1 2 3 5 3 3 4 5 5 7 5
-14 -14 -24 -31 -21 -11 1 1 2 2 3 2 1 0 0 3 3 3 3 3 4 4 4 3 2 2 3 2 1 2 4 4 3 3 3 4 3 2 3 5 5 4 4 4
-3 -13 -14 -18 -28 -21 -8 1 1 2 3 2 -0 0 1 1 3 3 4 4 4 3 4 4 5 5 4 4 3 3 3 4 5 5 4 2 2 4 5 6 5 2 4 5
-2 -2 -7 -6 -10 -25 -15 1 0 1 2 3 3 2 1 1 2 2 5 4 3 4 5 4 5 7 4 6 5 3 3 3 5 6 6 5 3 2 3 3 6 1 2 5
-2 -2 -2 -4 -3 -14 -17 -1 -1 -0 1 2 2 3 2 0 3 4 4 3 4 4 4 5 5 4 4 5 5 6 6 6 6 6 6 4 1 1 3 6 2 2 1 3
-2 -3 -2 -2 -2 -4 -9 -10 -2 -1 -0 -0 -0 1 4 4 3 3 3 3 4 4 5 4 5 5 5 4 3 4 5 5 6 6 6 5 -1 3 5 2 2 1 1 3
-2 -2 -2 -2 -3 -4 -3 -7 -6 -4 -2 -0 -0 1 2 3 5 5 4 4 4 4 4 4 5 5 4 5 5 1 6 3 4 3 3 -1 -0 1 1 2 1 1 1 4
-3 -3 -2 -3 -2 -3 -3 -3 -6 -4 -3 -4 -3 -2 1 2 4 5 4 4 4 3 4 4 4 5 4 5 5 5 2 1 3 3 2 1 1 1 1 1 0 0 1 4
-4 -3 -3 -3 -4 -4 -4 -2 -5 -4 -3 -1 -0 2 4 3 3 2 3 4 4 4 3 4 4 5 4 4 4 4 3 3 3 3 2 2 1 1 1 -0 1 1 3 3
-2 -3 -3 -3 -4 -4 -3 -5 -6 -7 -4 -1 -1 2 4 4 4 3 3 4 4 4 5 5 5 4 4 3 3 4 2 3 4 5 2 2 1 1 1 -0 0 1 1 1
-3 -3 -3 -4 -3 -3 -3 -5 -3 -3 -4 -2 0 3 4 4 4 4 4 4 5 5 4 4 4 3 3 5 5 1 1 1 1 2 2 1 1 1 0 -0 -0 0 0 0
-2 -3 -3 -4 -3 -3 -3 -5 -2 -2 -3 -3 -0 3 4 4 5 5 5 4 4 5 4 5 4 4 4 5 4 1 1 2 2 2 2 2 1 1 1 -1 -1 -1 -1 -1
-7 -4 -6 -3 -4 -5 -4 -5 -4 -2 -2 -2 -0 3 4 4 5 5 4 5 5 5 5 5 5 4 4 5 3 3 3 3 3 3 2 2 2 1 0 -1 -1 -1 -2 -2
-13 -5 -3 -2 -2 -3 -4 -3 -3 -4 -2 -2 0 3 4 5 4 5 4 5 5 4 5 4 4 4 5 4 4 4 3 2 3 3 2 2 2 1 0 -1 -1 -1 -2 -2
-7 -4 -2 -2 -3 -3 -3 -2 -1 -2 -1 -2 1 3 4 4 4 4 5 5 4 5 5 4 5 4 3 -1 -2 -2 -2 -2 1 3 2 2 1 1 -0 -1 -1 -1 -1 -2
-7 -3 -3 -3 -3 -2 -2 -1 -1 -1 1 1 2 4 3 3 3 4 4 3 3 5 3 3 3 5 0 -2 -2 -1 -1 -0 0 1 2 2 2 1 0 -1 -1 -1 -1 -1
-10 -3 -3 -2 -2 -1 -1 -0 0 1 2 3 3 3 3 3 3 3 3 3 3 4 1 3 3 2 -2 -2 -2 -1 0 1 1 2 3 3 2 1 0 -1 0 2 0 -1
-3 -3 -3 -2 -1 -1 1 1 2 2 0 1 2 2 3 3 3 2 2 3 3 0 3 3 1 -1 -2 -3 -3 -2 -0 1 0 1 2 2 1 1 0 -0 -1 -1 -1 -1
-4 -4 -3 -2 -1 -1 -1 -0 0 -0 -0 0 1 2 2 2 2 2 3 2 1 2 3 1 0 -1 -3 -3 -3 -2 -1 -1 1 -0 0 0 0 1 2 1 -0 -1 -2 2
-4 -4 -4 -2 -3 -3 -1 -2 -1 -0 -0 0 1 2 2 1 2 1 2 2 2 1 0 0 -1 -2 -3 -3 -3 -3 -2 -1 -1 -0 -0 -0 -0 1 2 2 1 -1 -0 3
-4 -4 -3 -3 -3 -2 -3 -3 -2 -1 -2 1 1 1 2 3 2 3 2 1 1 -1 -2 -2 -2 -2 -3 -2 -3 -3 -2 -2 -2 -2 -1 -1 -1 -1 0 2 1 -1 1 0
-5 -4 -4 -3 -2 -3 -2 -4 -3 -3 -3 1 0 2 3 1 3 2 1 2 -1 -2 -2 -3 -3 -2 -3 -3 -2 -2 -3 -2 -2 -2 -2 -2 -2 -2 -1 -1 -1 -1 -0 -5
Wind_Speed
31 32 34 37 32 12 11 12 4 5 5 3 2 2 4 7 3 10 6 4 6 7 6 5 5 8 2 20 14 8 5 4 4 9 5 8 4 6 5 4 4 4 2 9
29 31 34 35 19 11 10 6 5 1 5 2 3 5 3 2 5 5 4 3 4 13 6 6 3 4 3 18 8 9 7 2 0 2 4 3 5 6 6 4 2 12 4 7
28 30 33 32 17 7 5 3 2 3 0 2 1 3 5 6 11 4 6 5 15 6 3 2 7 3 3 5 5 13 13 4 5 5 4 4 3 4 6 9 5 9 18 25
29 28 30 30 20 6 5 6 1 2 3 2 5 2 4 4 5 6 9 6 6 6 3 4 5 5 4 4 4 3 4 2 1 6 8 5 7 10 11 12 17 11 25 21
27 29 27 27 25 8 16 4 5 10 6 1 4 1 2 3 4 7 5 4 9 11 4 1 5 7 4 4 3 3 2 1 0 5 10 8 8 11 13 15 17 20 24 27
24 27 26 24 24 18 10 13 5 3 6 3 2 2 3 3 1 5 6 2 7 8 4 7 8 11 6 9 7 6 5 3 1 4 5 8 5 7 10 6 6 8 10 18
20 23 24 22 19 17 10 14 7 5 4 2 1 2 3 5 3 4 4 11 5 2 1 2 5 5 4 5 6 9 6 4 2 3 5 1 4 5 5 8 8 8 10 13
18 17 21 21 18 13 10 9 6 3 3 5 3 4 4 6 7 3 4 4 3 1 1 2 3 2 2 2 5 6 5 3 1 1 2 6 5 1 3 5 5 4 5 8
16 18 16 19 18 14 8 5 9 3 4 2 8 5 5 3 2 1 2 3 1 1 1 2 3 3 2 3 2 6 7 5 2 2 2 3 3 2 3 4 4 5 6 5
17 16 16 17 17 16 9 2 6 4 5 6 9 3 2 4 3 1 1 3 0 2 1 1 2 2 1 4 6 4 4 3 7 6 4 6 7 4 6 2 4 4 3 2
17 16 15 15 15 17 14 5 6 4 4 23 14 14 6 6 5 4 4 3 2 1 2 2 2 2 2 1 4 6 6 6 3 4 4 7 6 5 4 6 5 6 5 3
15 16 15 16 16 14 16 15 9 8 11 12 13 17 16 14 3 2 8 2 3 5 3 1 1 2 1 2 3 3 2 6 4 7 6 7 7 10 10 7 10 8 5 7
16 16 15 15 16 15 15 18 13 9 9 20 22 20 16 17 13 6 4 3 3 3 4 3 1 3 1 2 4 2 3 8 3 2 6 8 12 3 6 8 9 7 6 8
19 16 15 16 15 16 16 19 15 11 8 5 8 8 12 17 17 12 9 2 6 8 5 3 2 1 4 3 3 2 5 6 2 5 8 5 3 4 6 6 3 2 7 9
20 19 17 18 19 20 20 22 23 19 15 4 10 12 18 16 16 15 11 9 6 4 3 2 3 2 2 3 2 4 5 6 4 5 7 3 3 5 6 5 2 4 8 11
21 19 21 21 16 16 15 5 6 13 20 6 4 5 14 17 14 14 13 11 7 3 3 4 4 4 6 2 3 6 14 18 20 11 12 8 4 4 5 4 4 6 7 8
21 22 21 13 6 7 10 4 2 9 18 5 4 3 8 16 14 11 10 10 5 6 3 3 3 4 8 2 6 7 19 28 26 21 10 6 8 5 4 4 6 9 10 11
24 22 7 2 4 4 2 14 16 5 11 6 3 2 5 16 7 6 9 8 7 6 3 2 3 3 4 3 5 17 19 18 11 12 11 12 7 5 6 6 9 13 15 15
18 4 1 2 1 1 1 2 3 8 7 4 3 0 3 8 5 6 6 6 3 7 3 3 4 2 3 3 12 19 20 14 14 10 7 8 9 9 10 11 14 15 17 17
6 1 2 1 2 1 2 4 3 3 5 5 3 4 2 5 4 4 6 5 2 2 2 3 2 3 3 19 20 21 22 18 12 12 10 10 12 13 14 17 16 15 18 19
6 5 1 3 3 2 2 3 3 3 3 4 5 2 3 2 2 2 1 2 1 1 2 2 2 1 6 22 22 22 20 16 14 15 15 12 12 12 17 18 18 17 17 20
9 5 6 2 1 2 2 2 2 3 2 2 2 4 3 4 3 3 1 2 1 3 1 1 2 1 19 22 24 23 19 17 13 9 12 12 11 9 15 19 20 20 21 21
1 1 2 2 2 3 3 3 2 1 5 5 3 1 2 3 2 3 1 2 3 2 1 2 2 10 21 22 23 22 17 13 8 4 6 9 8 9 15 18 20 20 21 21
0 1 3 3 3 4 2 1 0 1 2 6 4 1 2 2 3 1 2 1 2 1 2 3 2 17 21 20 21 21 20 14 12 8 3 4 7 10 14 16 17 21 24 21
1 2 4 4 4 3 2 1 2 2 2 3 1 2 1 2 1 1 2 1 3 4 4 1 9 15 17 21 22 22 20 15 11 9 6 2 5 8 11 14 15 18 21 20
3 5 3 5 1 2 3 4 3 2 4 1 1 1 1 2 2 2 4 3 5 2 1 3 12 12 15 21 22 20 18 15 12 9 6 4 4 8 11 13 16 21 22 22
4 5 9 10 3 1 3 2 1 3 1 1 0 3 3 0 2 2 2 1 2 3 3 8 12 11 13 19 20 21 19 16 13 11 7 5 5 7 11 15 18 20 20 24
Wind_Direction
353 356 359 1 6 47 68 52 58 105 15 9 310 353 326 349 102 278 276 131 100 142 147 126 179 180 239 186 161 185 168 129 187 221 224 188 160 190 162 148 252 236 216 276
359 0 5 9 25 69 64 53 56 80 350 15 351 335 336 259 360 350 26 63 136 144 158 140 189 106 43 173 148 159 171 201 9 344 35 174 201 204 201 218 22 244 268 263
1 3 9 13 16 36 39 81 54 299 345 171 20 328 23 344 333 338 21 56 117 139 138 174 158 104 54 117 113 162 150 164 169 189 201 122 234 230 217 201 234 268 245 276
4 8 13 15 20 7 50 33 0 326 289 345 124 53 17 355 356 4 23 18 97 144 102 83 115 107 87 70 111 82 105 152 315 273 266 234 223 237 234 235 248 249 279 280
3 9 14 19 21 26 53 50 1 342 317 87 27 112 210 281 357 15 6 86 64 59 83 97 149 127 143 186 144 133 77 203 263 281 257 243 255 254 246 244 253 255 263 273
1 6 11 19 22 28 46 17 354 329 292 307 119 253 192 79 107 358 46 347 90 64 33 69 77 94 97 149 151 163 146 141 72 273 321 323 288 234 216 220 206 251 270 286
358 359 6 13 22 26 30 18 4 333 295 353 223 54 55 82 17 125 33 49 86 94 80 61 80 72 76 111 146 143 145 155 163 267 341 274 228 248 204 217 247 243 271 292
347 0 357 4 14 20 13 6 18 342 288 313 311 183 137 114 92 82 77 58 83 163 89 94 139 142 46 238 172 144 135 143 194 247 224 275 292 225 212 185 273 223 258 291
341 346 357 355 1 13 23 25 355 329 310 224 316 263 164 176 169 114 123 135 110 87 97 125 182 180 154 154 124 180 158 173 167 206 289 262 254 278 122 113 270 234 226 267
333 339 341 347 349 354 4 342 337 319 280 268 345 344 286 195 132 118 153 154 64 164 117 139 156 239 240 170 167 174 177 181 216 226 258 281 249 220 155 333 255 260 282 326
325 328 334 335 335 340 347 328 308 321 271 273 276 284 311 346 144 150 180 104 267 94 117 140 156 192 273 308 161 174 169 165 191 182 226 264 205 116 200 232 279 285 302 182
327 325 329 329 323 324 321 318 320 272 257 259 257 255 256 255 252 31 175 287 156 169 111 195 141 241 240 248 270 168 198 188 185 190 213 238 249 252 273 285 293 297 262 195
318 319 321 318 316 312 303 302 312 310 279 287 266 256 234 234 217 185 209 213 183 149 118 128 136 250 309 251 246 311 277 200 235 151 267 248 278 266 315 307 298 279 234 190
320 314 312 306 305 301 292 283 294 268 270 270 270 207 226 212 215 211 223 230 169 152 156 123 151 237 195 248 279 239 242 333 249 267 282 308 229 316 323 320 318 181 182 191
319 314 311 311 303 297 287 274 274 258 231 298 286 291 200 205 208 206 205 195 194 178 143 149 210 200 224 227 247 246 208 202 207 232 276 253 259 305 307 298 231 193 196 171
319 317 311 308 303 299 297 311 268 222 215 257 274 245 185 195 194 193 191 190 201 197 187 202 215 214 181 248 259 249 251 267 255 263 275 269 256 298 294 272 209 185 189 192
319 313 311 311 318 298 232 235 256 162 187 238 265 244 136 167 156 162 173 183 197 212 221 225 229 219 198 242 270 271 292 293 294 292 276 252 247 262 266 243 188 167 161 160
324 319 311 6 59 50 258 247 271 326 184 251 268 267 121 155 145 139 172 175 184 209 238 213 216 194 217 257 276 309 317 342 324 313 242 259 251 236 231 208 183 168 160 160
336 12 119 293 80 198 194 282 252 266 234 276 265 26 125 156 114 116 154 168 179 190 213 229 166 218 232 291 308 313 325 328 317 316 260 255 259 235 213 196 182 182 170 168
341 137 77 0 291 314 209 238 257 228 226 238 264 292 91 167 125 165 142 182 183 205 210 151 197 256 297 356 340 328 324 320 311 253 251 246 241 227 207 202 195 195 182 174
23 32 322 265 233 192 233 255 229 209 248 223 253 317 126 76 107 120 105 163 132 209 239 192 227 207 342 345 345 341 333 322 303 265 263 271 295 253 211 198 197 189 188 185
334 317 310 291 236 230 230 232 224 226 263 284 327 11 72 104 105 106 162 136 72 240 86 150 236 86 349 350 349 350 344 341 335 294 251 259 273 228 210 203 199 191 190 187
349 29 268 206 180 245 228 210 223 198 349 347 8 355 73 111 110 65 100 151 211 142 150 231 195 341 350 353 353 355 2 357 348 345 273 258 236 217 200 198 204 198 186 181
358 104 262 211 180 245 226 159 174 314 329 350 351 19 83 64 72 128 171 209 101 222 234 234 352 344 344 350 359 2 5 10 360 359 336 273 233 219 210 207 204 198 188 185
240 181 237 217 248 283 326 306 309 293 311 10 40 357 337 36 112 195 122 140 226 218 214 113 346 353 360 2 2 2 5 7 6 357 351 291 220 220 211 200 198 200 196 200
229 234 274 244 38 227 278 271 257 265 337 63 97 355 96 228 189 151 214 205 222 210 111 358 350 356 5 7 8 5 2 2 358 350 338 305 232 225 225 216 205 205 211 205
233 245 243 251 280 113 215 240 235 273 291 243 93 205 192 82 177 228 230 239 80 77 344 350 354 352 1 359 1 4 4 1 359 350 335 308 271 235 220 216 212 210 210 207
Height
1471 1464 1457 1450 1442 1436 1436 1434 1438 1442 1441 1443 1440 1437 1436 1432 1431 1427 1424 1423 1428 1436 1443 1449 1452 1456 1450 1452 1456 1465 1466 1475 1489 1481 1473 1473 1476 1481 1484 1499 1498 1493 1493 1445
1471 1464 1458 1451 1445 1443 1441 1441 1445 1445 1445 1443 1440 1439 1433 1433 1429 1425 1422 1422 1424 1433 1440 1447 1447 1449 1451 1452 1456 1462 1465 1478 1494 1475 1475 1472 1475 1474 1474 1478 1483 1475 1483 1443
1472 1466 1459 1454 1448 1447 1445 1445 1449 1446 1445 1444 1444 1442 1439 1437 1431 1429 1426 1426 1429 1436 1438 1438 1447 1453 1453 1453 1456 1459 1462 1470 1482 1481 1478 1470 1479 1471 1470 1473 1478 1465 1448 1436
1473 1466 1461 1456 1452 1448 1448 1447 1448 1447 1449 1442 1443 1442 1443 1438 1436 1431 1429 1430 1432 1436 1440 1441 1447 1451 1454 1456 1458 1459 1463 1478 1477 1469 1466 1467 1469 1467 1466 1469 1461 1465 1432 1436
1474 1469 1463 1459 1454 1452 1451 1450 1452 1448 1444 1444 1443 1441 1443 1439 1436 1436 1434 1434 1436 1435 1441 1441 1445 1447 1453 1456 1459 1461 1464 1474 1475 1475 1463 1463 1464 1458 1457 1455 1453 1446 1440 1428
1476 1471 1466 1461 1457 1455 1453 1455 1453 1452 1446 1444 1444 1442 1440 1439 1438 1439 1439 1437 1439 1443 1444 1444 1444 1445 1448 1449 1454 1459 1465 1473 1481 1482 1458 1460 1458 1445 1442 1439 1436 1436 1433 1422
1476 1472 1468 1465 1461 1459 1459 1457 1455 1454 1449 1443 1441 1440 1440 1441 1439 1440 1440 1438 1440 1446 1445 1445 1446 1447 1449 1450 1452 1455 1465 1470 1476 1476 1467 1465 1434 1428 1428 1433 1429 1427 1425 1419
1476 1473 1469 1465 1463 1461 1459 1459 1458 1458 1453 1447 1441 1441 1442 1443 1442 1441 1442 1443 1444 1444 1445 1448 1449 1451 1453 1451 1452 1454 1457 1464 1467 1469 1473 1450 1430 1429 1430 1433 1427 1422 1420 1417
1476 1473 1470 1466 1463 1461 1460 1459 1459 1457 1456 1448 1447 1441 1440 1444 1444 1444 1443 1444 1444 1444 1446 1448 1451 1448 1444 1454 1453 1454 1457 1459 1464 1463 1464 1452 1429 1425 1426 1428 1426 1416 1416 1414
1473 1471 1469 1467 1464 1461 1459 1458 1457 1457 1456 1446 1445 1442 1440 1439 1441 1443 1442 1443 1444 1444 1447 1447 1451 1449 1442 1449 1453 1453 1454 1457 1458 1459 1457 1446 1427 1424 1426 1430 1425 1413 1412 1411
1471 1469 1467 1465 1463 1461 1459 1457 1456 1456 1453 1443 1443 1443 1441 1438 1437 1442 1443 1445 1445 1446 1447 1449 1447 1449 1443 1443 1442 1446 1448 1452 1451 1454 1455 1451 1418 1425 1427 1416 1410 1410 1409 1409
1467 1465 1464 1463 1462 1459 1457 1455 1454 1453 1451 1441 1438 1437 1438 1439 1439 1439 1441 1441 1439 1440 1444 1447 1446 1445 1446 1446 1445 1435 1442 1437 1441 1441 1435 1418 1417 1415 1414 1412 1410 1408 1408 1407
1465 1462 1460 1459 1459 1457 1456 1453 1452 1450 1446 1437 1433 1430 1433 1434 1435 1438 1439 1439 1439 1439 1439 1442 1445 1445 1445 1444 1442 1434 1427 1425 1427 1428 1417 1417 1416 1413 1412 1410 1408 1406 1406 1406
1461 1457 1455 1454 1452 1451 1451 1449 1450 1450 1447 1440 1425 1424 1427 1429 1431 1434 1436 1437 1438 1439 1440 1441 1443 1444 1444 1440 1436 1435 1430 1426 1424 1424 1416 1414 1412 1411 1410 1408 1406 1405 1405 1406
1455 1453 1450 1448 1446 1445 1443 1442 1442 1444 1447 1436 1425 1419 1420 1424 1427 1431 1434 1436 1437 1439 1440 1441 1442 1440 1441 1437 1436 1431 1422 1421 1423 1420 1414 1412 1411 1410 1409 1407 1406 1405 1405 1407
1451 1448 1445 1441 1439 1437 1436 1435 1434 1433 1439 1440 1427 1414 1415 1421 1424 1428 1431 1434 1436 1437 1438 1438 1436 1435 1437 1436 1430 1415 1414 1413 1413 1413 1412 1411 1409 1407 1407 1406 1405 1405 1405 1407
1445 1442 1438 1435 1434 1433 1434 1435 1431 1432 1437 1437 1424 1411 1412 1419 1423 1427 1430 1432 1434 1436 1436 1435 1434 1433 1434 1430 1424 1414 1413 1411 1410 1410 1410 1408 1407 1405 1405 1405 1405 1405 1405 1406
1439 1435 1432 1433 1432 1432 1432 1432 1432 1433 1432 1431 1421 1409 1411 1417 1420 1424 1428 1430 1432 1433 1433 1432 1430 1430 1429 1426 1416 1412 1409 1405 1403 1403 1403 1404 1404 1404 1404 1404 1404 1405 1405 1407
1434 1432 1432 1434 1432 1432 1433 1432 1431 1431 1433 1426 1416 1409 1410 1413 1416 1421 1426 1428 1430 1430 1429 1427 1428 1426 1425 1419 1416 1412 1409 1408 1405 1403 1402 1402 1402 1402 1402 1402 1404 1406 1406 1407
1432 1432 1432 1433 1433 1432 1432 1432 1430 1428 1426 1423 1416 1408 1409 1413 1415 1419 1423 1425 1425 1427 1424 1424 1424 1421 1418 1417 1415 1411 1407 1404 1402 1401 1400 1400 1399 1399 1400 1401 1403 1405 1406 1407
1431 1431 1433 1432 1431 1432 1431 1429 1428 1425 1422 1417 1412 1410 1411 1413 1415 1417 1420 1423 1425 1424 1424 1423 1422 1417 1420 1416 1411 1406 1402 1398 1396 1395 1395 1396 1395 1395 1397 1400 1402 1403 1405 1407
1432 1431 1432 1431 1430 1430 1431 1426 1424 1421 1415 1414 1412 1412 1413 1414 1415 1417 1421 1423 1425 1423 1423 1424 1419 1420 1419 1414 1409 1404 1399 1394 1391 1390 1391 1393 1394 1393 1395 1397 1400 1401 1404 1408
1430 1430 1431 1431 1430 1429 1424 1419 1416 1415 1417 1415 1414 1415 1414 1415 1416 1418 1420 1421 1421 1422 1422 1417 1421 1421 1417 1413 1408 1403 1398 1394 1392 1390 1392 1392 1392 1393 1393 1395 1398 1401 1404 1407
1431 1429 1430 1427 1423 1422 1418 1419 1419 1419 1418 1416 1415 1414 1414 1416 1417 1418 1418 1419 1420 1420 1420 1421 1422 1420 1415 1412 1408 1403 1398 1395 1392 1392 1391 1391 1391 1392 1393 1394 1396 1399 1402 1405
1431 1430 1428 1422 1419 1420 1419 1419 1419 1419 1418 1417 1416 1416 1417 1418 1419 1419 1420 1420 1418 1414 1420 1421 1422 1419 1415 1410 1406 1402 1399 1396 1394 1394 1392 1391 1392 1392 1393 1394 1396 1399 1402 1404
1429 1427 1423 1420 1419 1419 1420 1419 1419 1418 1417 1416 1417 1417 1418 1416 1417 1418 1415 1415 1414 1420 1420 1420 1419 1417 1414 1410 1406 1403 1400 1397 1395 1394 1393 1392 1392 1392 1393 1395 1396 1399 1402 1404
1424 1421 1420 1420 1418 1416 1419 1419 1418 1418 1418 1417 1417 1416 1414 1417 1415 1416 1413 1412 1417 1419 1419 1419 1418 1415 1413 1410 1407 1403 1400 1397 1395 1394 1393 1392 1392 1391 1392 1393 1394 1397 1400 1404